Вернуться в каталог

ONEWEB-0048

АктивенСвязьPO
NORAD 45153·PAYLOAD·🇬🇧 United Kingdom

Запущен Feb 6, 2020 с Baikonur Cosmodrome

Loading…

Ближайшие Пролёты (ближайшие 24 часа)

TLE

СвежийSource: CelesTrak SupGP

Эпоха: Sep 14, 2026, 13:39 UTC

1 45153C 20008Y   26257.56927498 -.00000505  00000+0 -14494-2 0  2572
2 45153  87.8904  18.4875 0001867  98.2787 312.0241 13.10372905    17

Отслеживайте ONEWEB-0048 в реальном времени с AllMySat

Download on the App Store